Regional Weather Roundup
Issued by NWS

Home | Current Version | Previous Version | Graphics & Text | Print | Product List | Glossary On
Versions: 1 2 3 4 5 6 7 8 9 10 11 12 13 14 15 16 17 18 19 20 21 22 23 24 25 26 27 28 29 30 31 32 33 34 35 36 37 38 39 40 41 42 43 44 45 46 47 48 49 50
000
ASUS45 KTFX 280010
RWRMT
MONTANA REGIONAL WEATHER ROUNDUP
NATIONAL WEATHER SERVICE GREAT FALLS MT
600 PM MDT SAT MAY 27 2017

NOTE: "FAIR" INDICATES FEW OR NO CLOUDS BELOW 12000 FEET WITH NO
SIGNIFICANT WEATHER AND/OR OBSTRUCTIONS TO VISIBILITY.

MTZ001>007-043-280100-
WEST OF THE DIVIDE

CITY           SKY/WX    TMP DP  RH WIND       PRES   REMARKS
KALISPELL      SUNNY     75  45  34 S10       30.10S
MISSOULA       SUNNY     76  36  23 NW7       30.14F
BUTTE          CLOUDY    66  29  24 W9        30.23S
MULLAN PASS    SUNNY     61  33  35 VRB3      30.28S
ANACONDA         N/A     64  30  27 CALM      30.21R
DEER LODGE       N/A     68  34  28 NW8       30.22R
EUREKA           N/A     82  39  21 CALM      30.06S
HAMILTON         N/A     75  36  23 SE5       30.17S
PLAINS           N/A     78  43  28 CALM      30.11S
RONAN            N/A     76  39  26 E5        30.17F
$$

MTZ008-052>055-280100-
SOUTHWEST MONTANA

CITY           SKY/WX    TMP DP  RH WIND       PRES   REMARKS
BOZEMAN        CLOUDY    70  37  29 W8        30.18S
DILLON         SUNNY     68  34  28 VRB5      30.21R
ENNIS          PTSUNNY   66  32  28 VRB6      30.26S
THREE FORKS      N/A     71  35  26 S2        30.15S
TWIN BRIDGES     N/A     67  33  28 CALM      30.17S
$$

MTZ009-010-012-014-046-048-049-054-280100-
EAST SLOPES AND CENTRAL MONTANA

CITY           SKY/WX    TMP DP  RH WIND       PRES   REMARKS
CUT BANK       MOSUNNY   73  35  25 W17       30.09S
GREAT FALLS    MOSUNNY   74  33  22 W5        30.10R
MALMSTROM AFB  CLOUDY    71  34  24 NW8       30.09S
HELENA         MOSUNNY   72  36  26 W6        30.14S
CHOTEAU          N/A     73  34  23 SW7G13    30.13S
CONRAD           N/A     76  39  26 W13       30.11S
$$

MTZ011-013-016-021-045-047-050-051-280100-
NORTH CENTRAL MONTANA

CITY           SKY/WX    TMP DP  RH WIND       PRES   REMARKS
HAVRE          MOSUNNY   80  34  19 NW14      29.99F
LEWISTOWN      MOSUNNY   69  37  30 NW9G23    30.11R
N BAR RANCH      N/A     66  36  32 NW17      30.13R
CHINOOK          N/A     79  36  21 W13G18    29.97F
$$

MTZ017>020-022>027-061-062-280100-
NORTHEAST MONTANA

CITY           SKY/WX    TMP DP  RH WIND       PRES   REMARKS
GLASGOW        MOSUNNY   78  32  18 NW23G36   29.92S
JORDAN           N/A     78  29  16 NW22G29   29.97R
SIDNEY         SUNNY     75  35  23 NW23G35   29.87S
WOLF POINT     SUNNY     77  33  20 NW22G31   29.89S
MALTA          MOSUNNY   79  32  18 NW21G28   29.94S
PLENTYWOOD       N/A     72  34  25 NW31G41   29.84R
POPLAR           N/A     73  36  25 NW20G28   29.89R
SCOBEY           N/A     72  36  26 NW21      29.88F
$$

MTZ028>42-056>058-280100-
SOUTHCENTRAL AND SOUTHEAST MONTANA

CITY           SKY/WX    TMP DP  RH WIND       PRES   REMARKS
BAKER          CLOUDY    68  38  33 N18       29.95R
BILLINGS       CLOUDY    75  32  20 NW18G30   30.07F
LIVINGSTON     CLOUDY    67  38  34 W10       30.17R
MILES CITY     CLOUDY    77  31  18 NW24G32   29.95R
BIG TIMBER     PTSUNNY   68  36  30 W14G25    30.17S
EKALAKA          N/A     62  43  49 W13       29.97S
FORSYTH          N/A     72  37  28 W14G21    29.99R
LAUREL           N/A     72  38  29 W16       30.08F
ROUNDUP          N/A     72  35  25 W15       29.98R
$$

REGIONAL REPORTS...DAKOTAS

CITY           SKY/WX    TMP DP  RH WIND       PRES   REMARKS
WILLISTON      SUNNY     75  34  22 NW22G39   29.84R
MINOT          SUNNY     63  43  48 NW18      29.81R
DICKINSON      SUNNY     69  32  25 NW21G30   29.86F
BEACH          DRIZZLE   59  46  63 N25G37    29.98R
CROSBY           N/A     72  32  23 NW26G35   29.81S
TIOGA            N/A     66  41  39 NW15      29.84F
WATFORD CITY     N/A     70  43  37 NW7       29.84S
BISMARCK       CLOUDY    64  45  49 N24G35    29.84R
GRAND FORKS    CLOUDY    70  48  45 SE5       29.69F
FARGO          CLOUDY    75  37  25 W15G24    29.72S
BUFFALO SD       N/A     67  42  40 W26G35    29.89F
RAPID CITY     MOSUNNY   71  34  25 NW14      29.99S
$$

REGIONAL REPORTS...WYOMING/IDAHO/WASHINGTON

CITY           SKY/WX    TMP DP  RH WIND       PRES   REMARKS
GILLETTE       PTSUNNY   64  36  35 NW21G28   30.09R
SHERIDAN       SUNNY     68  37  32 NW14      30.11R
BUFFALO WY     CLOUDY    64  34  32 W15       30.15R
CODY           SUNNY     66  28  24 CALM      30.19S
YELLOWSTONE LA   N/A     49  33  54 CALM      30.34R
IDAHO FALLS    MOSUNNY   67  40  37 VRB6      30.24S
SALMON         MOSUNNY   72  34  25 CALM      30.16S
BOISE          SUNNY     77  34  21 VRB5      30.14F
SPOKANE        MOSUNNY   78  39  24 SW9       30.13S
$$

REGIONAL REPORTS...ALBERTA

CITY           SKY/WX    TMP DP  RH WIND       PRES   REMARKS
EDMONTON       SUNNY     73  39  29 N13G24    30.01R
CALGARY        TSTM      70  37  30 W22G37    30.09R
LETHBRIDGE     MOSUNNY   77  39  25 W15G22    30.03S
MEDICINE HAT   TSTM      73  41  31 W16G28    29.97R
MILK RIVER       N/A     75  39  27 NW10G20     N/A
ONEFOUR          N/A     77  37  24 NW20G28     N/A
$$

REGIONAL REPORTS...SASKATCHEWAN

CITY           SKY/WX    TMP DP  RH WIND       PRES   REMARKS
SWIFT CURRENT  SUNNY     73  34  23 N28G36    29.91R
REGINA         MOSUNNY   70  37  30 N17G32    29.83R
SASKATOON      MOSUNNY   72  30  21 N28G36    29.88R
VAL MARIE        N/A     73  34  23 NW28G37     N/A
ROCKGLEN         N/A     68  36  30 N17G28      N/A
$$



USA.gov is the U.S. government's official web portal to all federal, state and local government web resources and services.